EST,Max TemperatureF,Mean TemperatureF,Min TemperatureF,Max Dew PointF,MeanDew PointF,Min DewpointF,Max Humidity, Mean Humidity, Min Humidity, Max Sea Level PressureIn, Mean Sea Level PressureIn, Min Sea Level PressureIn, Max VisibilityMiles, Mean VisibilityMiles, Min VisibilityMiles, Max Wind SpeedMPH, Mean Wind SpeedMPH, Max Gust SpeedMPH,PrecipitationIn, CloudCover, Events, WindDirDegrees
2014-2-1,36,32,28,36,31,28,100,100,100,30.08,29.95,29.79,10,4,0,12,8,,1.12,8,Fog-Rain-Snow,100
2014-2-2,28,22,16,29,25,16,100,97,84,30.29,30.13,29.98,10,9,4,14,9,,0.03,7,Rain-Snow,339
2014-2-3,21,14,6,15,12,7,100,94,74,30.43,30.36,30.28,10,8,0,8,4,,0.00,0,Fog,1
2014-2-4,21,14,6,20,14,7,100,94,67,30.43,30.27,29.96,10,5,0,21,8,24,0.13,4,Fog-Snow,65
2014-2-5,24,18,12,23,19,12,100,96,86,30.43,30.03,29.82,10,5,1,22,15,29,0.05,8,Snow,3
2014-2-6,19,7,-5,18,6,-9,100,94,77,30.50,30.41,30.37,10,10,8,18,8,,0.00,6,Snow,267
2014-2-7,9,-2,-12,1,-7,-15,88,81,66,30.51,30.46,30.41,10,10,10,17,8,,0.00,0,,231
2014-2-8,19,8,-2,20,10,-6,100,92,82,30.41,30.24,30.11,10,7,1,10,5,,0.08,8,Snow,135
2014-2-9,20,18,15,20,18,14,100,99,83,30.16,30.10,30.06,10,4,2,14,5,,0.04,7,Snow,267
2014-2-10,7,-2,-11,2,-5,-15,94,86,76,30.49,30.37,30.21,10,10,10,10,6,,0.00,0,,268
2014-2-11,10,-4,-17,5,-7,-21,95,87,75,30.58,30.52,30.47,10,10,6,7,3,,0.00,0,,218
2014-2-12,21,6,-8,11,0,-11,98,82,60,30.45,30.27,30.07,10,10,10,8,6,,0.00,0,,103
2014-2-13,32,16,0,29,7,-2,94,82,52,30.06,29.89,29.57,10,8,2,23,7,31,0.00,2,,119
2014-2-14,32,20,8,30,15,7,100,90,80,29.89,29.71,29.54,10,9,2,28,16,37,0.00,5,Snow,290
2014-2-15,19,10,0,19,11,-1,100,91,78,30.15,30.01,29.84,10,9,3,13,9,,0.00,6,Snow,257
2014-2-16,24,15,6,22,18,7,100,96,81,30.32,30.07,29.94,10,8,3,15,7,,0.01,6,Snow,188
2014-2-17,34,22,10,34,23,10,100,97,85,30.32,29.95,29.65,10,7,0,34,14,40,0.11,6,Snow,132
2014-2-18,41,30,20,34,31,21,100,88,69,30.06,29.89,29.71,10,10,8,34,22,44,0.00,4,,229
2014-2-19,39,34,30,37,33,30,100,94,81,30.07,29.91,29.68,10,10,10,17,12,,0.00,1,,238
2014-2-20,50,40,30,50,39,31,100,100,93,30.01,29.63,29.38,10,7,0,31,15,45,0.64,7,Fog-Rain-Thunderstorm,146
2014-2-21,37,34,32,34,31,23,100,88,56,29.91,29.69,29.55,10,10,9,31,21,38,0.00,6,Snow,239
2014-2-22,39,34,28,34,30,24,100,89,57,30.06,30.01,29.84,10,7,3,18,9,,0.06,5,Rain-Snow,283
2014-2-23,32,27,21,32,24,16,100,89,61,30.23,30.14,30.03,10,10,9,15,7,,0.00,3,Snow,278
2014-2-24,26,20,14,16,14,10,88,76,64,30.30,30.26,30.22,10,10,10,21,14,24,0.00,1,,279
2014-2-25,25,20,12,18,16,5,100,85,70,30.25,30.18,30.09,10,10,4,23,12,22,0.00,6,Snow,291
2014-2-26,17,10,4,10,3,-1,85,70,56,30.26,30.10,29.79,10,10,10,21,16,21,0.00,0,,267
2014-2-27,20,12,3,11,3,-5,85,64,44,30.24,29.93,29.68,10,10,5,30,21,40,0.00,3,Snow,310
2014-2-28,32,17,2,19,7,-1,89,65,40,30.28,30.19,30.08,10,10,10,15,9,,0.00,1,,131